www.pogodaiklimat.ru

Погода и климат >> Архив погоды >> Украина >> Сарны


ПОГОДА в Сарнах

  • Прогноз погоды в Сарнах
  • Монитор погоды в Сарнах

АРХИВ ПОГОДЫ в Сарнах

Время (UTC), дата Ветер
(напр.,м/с)
 
Видим.   Явления Облачность Т
(С)
Тd
(С)
f
(%)
Тe
(С)
Тes
(С)
Комфортность P
(гПа)
Po
(гПа)
Тmin
(С)
Tmax
(С)
R
(мм)
R24
(мм)
S
(см)
09 19.06 В 3 10 км 6/6 1000 м
[Cu med, cong]
+26.3 +13.0 44 +28 +34 жарко 1016.9 999.1
12 19.06 В 3 10 км 6/6 1000 м
[Cu med, cong]
+28.6 +12.0 36 +30 +35 жарко 1015.4 997.7
15 19.06 В 3 10 км 4/3 1000 м
[Cu med, cong Ci fib]
+28.3 +12.5 38 +30 +33 жарко 1014.0 996.3
18 19.06 штиль 0 10 км 9/0
[As op Cs]
+25.1 +16.3 58 +28 +28 жарко 1013.8 996.0 +29.6
21 19.06 штиль 0 10 км 10/0
[As op]
+21.3 +17.1 77 +25 +25 комфорт 1014.2 996.2
00 20.06 штиль 0 10 км 8/0
[Ac As]
+19.5 +16.0 80 +21 +21 комфорт 1014.2 996.0
03 20.06 ЮВ 2 10 км 8/0
[Ac cast Cc]
+19.2 +16.0 82 +21 +22 комфорт 1013.6 995.4
06 20.06 Ю 3 10 км 8/0
[Cc]
+24.4 +17.4 65 +28 +33 душно 1013.4 995.6 +18.5
09 20.06 ЮВ 6 10 км 8/4 600 м
[Cb cap Ac As]
+28.6 +16.8 49 +32 +34 душно 1012.8 995.2
12 20.06 Ю 4 10 км 9/5 600 м
[Cb cap Ac cuf]
+25.5 +17.0 59 +29 +31 душно 1013.5 995.7
15 20.06 ЮВ 4 10 км 9/3 600 м
[Cu med, cong Ac cuf Ci]
+25.2 +16.1 57 +29 +30 душно 1012.3 994.5
18 20.06 штиль 0 10 км 8/0
[Ac As Ci]
+23.7 +19.0 75 +28 +29 душно 1012.3 994.5 +29.2
21 20.06 штиль 0 10 км зарница 8/8 600 м
[Cb cap]
+21.1 +18.7 86 +25 +25 комфорт 1013.0 995.0
00 21.06 В 1 10 км {гроза, ливн. осадки} 3/0
[Ac trans]
+19.4 +16.9 85 +22 +22 комфорт 1013.6 995.5
03 21.06 ЮВ 1 10 км 1/0
[Ci fib]
+19.0 +17.5 91 +22 +22 комфорт 1013.6 995.4
06 21.06 штиль 0 10 км 3/0
[Ci]
+23.3 +20.5 84 +31 +40 очень
душно
1014.0 996.1 +18.4 6
09 21.06 ЮЗ 2 10 км 4/3 600 м
[Cu med, cong Ci fib]
+28.6 +19.1 56 +34 +45 очень
душно
1013.8 996.2
12 21.06 Ю 6 10 км 6/5 600 м
[Cu med, cong Ci fib]
+31.6 +17.4 43 +36 +38 очень
душно
1013.0 995.6
15 21.06 В 1 10 км в посл. час гроза {ливн. осадки} 9/1 600 м
[Cu med, cong Ac lent Cs]
+22.7 +20.1 85 +29 +32 очень
душно
1013.0 995.1
18 21.06 ЮЗ 2 10 км зарница {гроза, ливн. осадки} 9/4 600 м
[Cb cap Ac lent Cs]
+23.4 +21.0 86 +31 +31 очень
душно
1013.3 995.4 +31.7 15
21 21.06 штиль 0 10 км в посл. час гроза 8/4 600 м
[Cb cap Ac As]
+20.5 +17.8 85 +24 +24 комфорт 1015.0 996.9
00 22.06 СЗ 1 10 км {гроза} 8/0
[Ac As]
+18.9 +16.6 87 +21 +21 комфорт 1015.8 997.6
03 22.06 штиль 0 10 км 3/0
[Ac trans]
+18.2 +15.8 86 +19 +19 1016.1 997.8
06 22.06 З 3 10 км 8/0
[Ac As]
+21.8 +17.4 76 +26 +29 душно 1017.3 999.2 +17.8
09 22.06 штиль 0 10 км 9/4 600 м
[Cu med, cong Ac As]
+23.6 +19.4 77 +29 +34 душно 1017.8 999.9
12 22.06 С 3 10 км в посл. час ливневой дождь {гроза} 9/8 600 м
[Cb cap Ac As]
+23.4 +20.0 81 +30 +32 очень
душно
1017.7 999.8
15 22.06 С 4 10 км гроза без осадков 10/10 600 м
[Cb cap]
+22.0 +18.0 78 +27 +27 душно 1017.6 999.6
18 22.06 С 2 10 км в посл. час ливневой дождь {гроза} 8/3 600 м
[Sc diur, vesp Ac lent Cs]
+21.2 +19.3 89 +26 +26 душно 1018.2 1000.1 +24.6 0.6
21 22.06 С 3 10 км слаб. ливневой дождь 10/10 600 м
[Cb cap]
+20.0 +19.4 96 +24 +24 комфорт 1018.0 999.8
00 23.06 С 4 10 км {ливн. осадки} 4/0
[Ac As Cs]
+19.0 +18.0 94 +21 +21 комфорт 1016.8 998.6
03 23.06 С 2 10 км слаб. ливневой дождь 10/10 600 м
[Cb cap]
+18.7 +17.9 95 +20 +20 1017.5 999.3
06 23.06 СВ 2 10 км {ливн. осадки} 10/10 600 м
[Sc]
+19.1 +17.5 90 +21 +21 комфорт 1018.2 1000.0 +18.0 3
09 23.06 СВ 3 10 км 8/4 600 м
[Cu med, cong Cc]
+21.3 +18.4 84 +26 +33 душно 1018.3 1000.2
12 23.06 С 4 10 км 8/5 600 м
[Cu med, cong Ac trans]
+23.0 +18.1 74 +29 +32 очень
душно
1018.6 1000.6
15 23.06 С 3 10 км 8/8 600 м
[Cu med, cong]
+22.3 +18.0 77 +27 +28 душно 1018.2 1000.2
18 23.06 С 3 10 км 10/10 600 м
[Sc]
+21.2 +17.5 79 +25 +25 комфорт 1019.1 1001.0 +23.6
21 23.06 СВ 3 10 км в посл. час ливневой дождь 9/9 600 м
[Cb cap]
+19.0 +16.3 84 +21 +21 комфорт 1020.4 1002.1
00 24.06 С 2 10 км {ливн. осадки} 1/0
[Cs]
+17.1 +14.9 87 +17 +17 1020.9 1002.5
03 24.06 С 2 10 км 10/10 600 м
[Sc]
+16.4 +14.3 87 +16 +16 1021.8 1003.3
06 24.06 СВ 3 10 км 10/10 600 м
[Sc]
+17.4 +15.7 90 +17 +17 1022.6 1004.2 +15.7 3
09 24.06 СВ 4 10 км 6/6 600 м
[Cu med, cong]
+23.5 +16.5 65 +27 +31 душно 1022.4 1004.3
12 24.06 СВ 4 10 км 6/6 600 м
[Cu med, cong]
+26.0 +15.7 53 +29 +33 душно 1022.5 1004.6
15 24.06 СВ 3 10 км 3/3 1000 м
[Cu hum]
+26.9 +14.6 47 +29 +33 жарко 1022.4 1004.5
18 24.06 С 3 10 км ясно +24.6 +14.1 52 +27 +27 жарко 1023.5 1005.5 +27.4
21 24.06 С 2 10 км ясно +19.7 +15.7 78 +22 +22 комфорт 1025.9 1007.5
00 25.06 штиль 0 10 км ясно +16.6 +14.0 85 +16 +16 1026.4 1007.8
03 25.06 штиль 0 10 км ясно +15.6 +13.6 88 +15 +16 1027.3 1008.6
06 25.06 В 3 10 км 6/0
[Ci]
+19.6 +12.5 64 +21 +27 комфорт 1028.1 1009.7 +14.9
09 25.06 В 4 10 км 1/0
[Ci fib]
+25.0 +9.2 37 +26 +36 жарко 1027.9 1009.8
12 25.06 В 3 10 км 1/0
[Ci fib]
+27.1 +10.1 34 +28 +40 жарко 1027.3 1009.3
15 25.06 С 1 10 км 3/0
[Ci]
+27.3 +8.9 31 +27 +33 жарко 1026.3 1008.4
18 25.06 С 1 10 км 8/0
[Ci]
+25.5 +10.9 40 +27 +27 жарко 1025.8 1007.8 +27.6
21 25.06 штиль 0 10 км ясно +18.0 +13.6 75 +18 +18 1027.4 1008.9
00 26.06 штиль 0 10 км 1/0
[Ci fib]
+15.2 +12.8 86 +15 +15 1027.4 1008.7
03 26.06 штиль 0 10 км 4/0
[Ci]
+13.1 +12.2 94 +13 +13 1026.6 1007.8
06 26.06 Ю 1 10 км 6/0
[Ci]
+23.0 +16.3 66 +28 +35 душно 1025.3 1007.2 +12.4

 

Местоположение метеостанции Сарны (Ровенская область, Украина): широта 51.28 долгота 26.62 высота над уровнем моря 156 м.

В архиве по умолчанию представлена погода в Сарнах за последнюю неделю. Архивные данные за месяц целиком и за предыдущие месяцы, начиная с января 2011 года, Вы можете получить, выбрав интересующий диапазон дат из раскрывающегося списка и нажав кнопку "Ввод!".


*Определитесь, кто Вы:
робот инопланетянин человек

Внимание! Время в таблицах - всемирное. Для получения местного времени необходимо прибавить поправку, которая равна 2 ч.

Смотрите также архив погоды в соседних городах и на ближайших метеорологических станциях:

Погода в Олевске (Житомирская область, Украина) (74 км)
Погода в Маневичах (Волынская область, Украина) (76 км)
Погода в Ровно (Ровенская область, Украина) (85 км)
Погода в Пинске (Брестская область, Беларусь) (101 км)
Погода в Луцке (Волынская область, Украина) (102 км)
Погода в Любешове (Волынская область, Украина) (103 км)
Погода в Новограде-Волынском (Житомирская область, Украина) (104 км)
Погода в Дубно (Ровенская область, Украина) (113 км)
Погода в Полесской (Брестская область, Беларусь) (114 км)
Погода в Шепетовке (Хмельницкая область, Украина) (127 км)

Пояснения к столбцам:

Ветер - указаны скорость ветра в м/с - средняя за 10 мин, порывы в срок и между сроками (в фигурных скобках) и направление, откуда дует ветер: С - северный, СВ - северо-восточный, В - восточный, ЮВ - юго-восточный, Ю - южный, ЮЗ - юго-западный, З - западный, СЗ - северо-западный.
Видимость - горизонтальная дальность видимости в метрах или километрах. При видимости от 1 до 10 км при отсутствии осадков обычно наблюдается дымка, при ухудшении видимости до 1 км и менее - туман. В сухую погоду видимость может ухудшаться дымом, пылью или мглою.
Явления - указаны атмосферные явления, наблюдавшиеся в срок или в последний час перед сроком; фигурными скобками обозначены явления, наблюдавшиеся между сроками (за 1-3 часа до срока); квадратными скобками обозначены град или гололедные отложения с указанием их диаметра в мм.
Облачность - указаны через наклонную черту общая и нижняя облачность в баллах и высота нижней границы облаков в метрах; квадратными скобками обозначены формы облаков: Ci - перистые, Cs - перисто-слоистые, Cc - перисто-кучевые, Ac - высококучевые, As - высокослоистые, Sc - слоисто-кучевые, Ns - слоисто-дождевые, Cu - кучевые, Cb - кучево-дождевые. Подробнее классификацию облаков см. в Атласе облаков (PDF).
T - Температура воздуха - температура, измеренная на высоте 2 м над землей.
Td - Температура точки росы - температура, при понижении до которой содержащийся в воздухе водяной пар достигнет насыщения.
f - Относительная влажность воздуха - влажноcть воздуха, измеренная на высоте 2 м над землей.
Te - Эффективная температура - температура, которую ощущает одетый по сезону человек в тени. Характеристика душности погоды. При расчете учитывается влияние влажности воздуха и скорости ветра на теплоощущения человека.
Tes - Эффективная температура на солнце - температура, которую ощущает человек, с поправкой на солнечный нагрев. Характеристика знойности погоды. Зависит от высоты солнца над горизонтом, облачности и скорости ветра. Ночью, в пасмурную погоду, а также при ветре 12 м/с и более поправка равна нулю.
P - Атмосферное давление - приведенное к уровню моря атмосферное давление.
Po - Атмосферное давление - измеренное на уровне метеостанции атмосферное давление.
Tmin - Минимальная температура - минимум температуры воздуха на высоте 2 м над землей.
Tmax - Максимальная температура - максимум температуры воздуха на высоте 2 м над землей.
R - Количество осадков - Количество выпавших осадков за период времени, мм. При наведении курсора мыши на число - период времени, за который выпало указанное количество осадков.
R24 - Количество осадков - Количество выпавших осадков за 24 часа, мм.
S - Снежный покров - Высота снежного покрова, см. При наведении курсора мыши на число - состояние снежного покрова и степень покрытия местности в баллах.